Aérodrome :
LOGIN :

S'inscrire | Disclaimer

   EN    FR    IT 

 










Légende :    VFR   VFR Marginal   IFR   IFR Intensif   IFR Très Intensif
Visi : 
Plafond : 
>= 8 km
>= 3000ft
5 à 8 km
1000 à 3000 ft
1500m à 5 km
500 à 1000 ft
800 à 1500m
200 à 500 ft
< 800m
< 200 ft
Symboles :   Orages  Brouillard  Fortes neiges  Fortes précipitations  Vent > 20 kt
SIGMETs :   Divers  Orages  Givrage  Turbulence  Onde Orograph.  Cendres Volcan.







- Altitude de l'aérodrome : 1768 ft


LEHC - Huesca Pirineos

DERNIER METAR :
  • 210000Z AUTO VRB02KT 9999 NCD 20/09 Q1022

METARs EXPIRÉS :
  • 202330Z AUTO VRB01KT 9999 NCD 20/09 Q1022
  • 202300Z AUTO VRB02KT 9999 NCD 20/09 Q1022
  • 202230Z AUTO 35002KT 9999 NCD 20/08 Q1022
  • 202200Z AUTO VRB01KT 9999 NCD 20/09 Q1022
  • 202130Z AUTO VRB01KT 9999 NCD 21/09 Q1022

TAF TAF LEHC
Valide du 20 à 09h jusqu'au 21 à 09h UTC


200800Z 2009/2109 28008KT 9999 FEW045 TX32/2015Z TN18/2105Z
BECMG 2021/2023 11008KT
Pas de NOTAMs connus pour ce terrain.



MET'MAP, la Météo Aéronautique d'un coup d'oeil ! - Copyright ORBIFLY Décembre 2007 - Disclaimer

ORBIFLY MET'MAP TEAM :

Programmation & Développement : Alexandra Zaïnal
Conception & Développement : Baudouin d'Aumeries
Co-Programmation & Développement : Marc-Olivier Méhu
Soutien technique & logistique : Manuel Goepfert

Contact : metmap@orbifly.com




SOURCES & CREDITS :

   NOAA